This demonstration page uses our WeatherBlox Daily Observations layout. Learn more.

41.55636, -103.73856

Hourly Observations for January 4, 2018

Temp ( °F °C ) Dew Point ( °F °C ) Humidity (%) Winds ( mph kmh ) Pressure ( in mb ) Visibility ( mi km ) Precip ( " mm )
12:53 am 00:53 Clear 25 -3.9 14 -10 63 63 WNW 9 15 30.21 1023 10 16.09344 0 0
1:53 am 01:53 Clear 31 -0.6 14 -10 49 49 NW 12 19 30.21 1023 10 16.09344 0 0
2:53 am 02:53 Clear 26 -3.3 12 -11.1 55 55 NW 10 17 30.24 1024 10 16.09344 0 0
3:53 am 03:53 Clear 25 -3.9 11 -11.7 55 55 NW 9 15 30.27 1025 10 16.09344 0 0
4:53 am 04:53 Clear 27 -2.8 11 -11.7 51 51 NW 12 19 30.21 1023 10 16.09344 0 0
5:53 am 05:53 Clear 27 -2.8 12 -11.1 53 53 NW 13 20 30.27 1025 10 16.09344 0 0
6:53 am 06:53 Clear 28 -2.2 12 -11.1 51 51 NW 10 17 30.24 1024 10 16.09344 0 0
7:53 am 07:53 Sunny 23 -5 13 -10.6 65 65 WNW 13 20 30.27 1025 10 16.09344 0 0
8:53 am 08:53 Sunny 27 -2.8 13 -10.6 55 55 WNW 9 15 30.3 1026 10 16.09344 0 0
9:53 am 09:53 Sunny 33 0.6 16 -8.9 49 49 WNW 9 15 30.3 1026 10 16.09344 0 0
10:53 am 10:53 Sunny 40 4.4 18 -7.8 41 41 NNW 7 11 30.27 1025 10 16.09344 0 0
11:53 am 11:53 Sunny 32 0 20 -6.7 61 61 undefined N/A 30.27 1025 10 16.09344 0.001 0.001
12:53 pm 12:53 Sunny 48 8.9 22 -5.6 36 36 NW 7 11 30.21 1023 10 16.09344 0 0
1:53 pm 13:53 Sunny 44 6.7 22 -5.6 41 41 NNW 10 17 30.18 1022 10 16.09344 0 0
2:53 pm 14:53 Sunny 45 7.2 23 -5 42 42 NNW 8 13 30.18 1022 10 16.09344 0 0
3:53 pm 15:53 Sunny 39 3.9 21 -6.1 48 48 NW 7 11 30.21 1023 10 16.09344 0 0
4:53 pm 16:53 Clear 29 -1.7 18 -7.8 63 63 NNW 6 9 30.24 1024 10 16.09344 0 0
5:53 pm 17:53 Clear 23 -5 15 -9.4 72 72 NNE 6 9 30.27 1025 10 16.09344 0 0
6:53 pm 18:53 Clear 21 -6.1 15 -9.4 78 78 N 5 7 30.27 1025 10 16.09344 0 0
7:53 pm 19:53 Clear 25 -3.9 18 -7.8 75 75 N 5 7 30.27 1025 10 16.09344 0 0
8:53 pm 20:53 Clear 18 -7.8 12 -11.1 77 77 NW 7 11 30.3 1026 10 16.09344 0 0
9:53 pm 21:53 Clear 20 -6.7 11 -11.7 68 68 NW 7 11 30.24 1024 10 16.09344 0 0
10:53 pm 22:53 Clear 18 -7.8 13 -10.6 81 81 NW 5 7 30.24 1024 10 16.09344 0 0
11:53 pm 23:53 Clear 17 -8.3 11 -11.7 77 77 NNW 5 7 30.24 1024 10 16.09344 0 0

Powered by AerisWeather